Flag for U.S.A. Weather past 2 weeks in Bridgewater, Massachusetts, U.S.A.

Now
55 °F

Light rain. Fog.


Feels Like: 51 °F
Forecast: 49 / 68 °F
Wind: 16 mph from Southeast

Location: Taunton Municipal Airport

Current Time: Apr 20, 2015 at 10:11:07 PM

Latest Report: Apr 20, 2015 at 8:52 PM


Visibility: 4 mi

Pressure: 29.78 "Hg

Humidity: 90%

Dew point: 52 °F

Location of BridgewaterLocation

Historic Weather in Bridgewater — Graph

°F

Bridgewater temperature yesterday

Maximum temperature yesterday: 57 °F (at 2:52 PM)
Minimum temperature yesterday: 36 °F (at 1:52 AM)
Average temperature yesterday: 47 °F

Past Weeks' High & Low Weather Summary

 TemperatureHumidityPressure
High74 °F (Apr 18, 1:52 PM)100% (Apr 6, 7:52 AM)30.49 "Hg (Apr 6, 7:52 AM)
Low28 °F (Apr 16, 5:52 AM)13% (Apr 15, 3:52 PM)29.71 "Hg (Apr 10, 5:52 PM)
Average48 °F69%30.16 "Hg
* Reported Apr 5 8:52 PM — Apr 20 8:52 PM, Bridgewater, Weather by CustomWeather, © 2015

Note: Actual official high and low records may vary slightly from our data, if they occured in-between our weather recording intervals... More about our weather records

Advertising

Bridgewater weather history for previous 24 hours

 ConditionsComfort  
Time TempWeatherWind HumidityBarometerVisibility
8:52 PM
Mon, Apr 20
55 °FLight rain. Fog.16 mph90%29.78 "Hg4 mi
7:52 PM55 °FLight rain. Low clouds.21 mph90%29.80 "Hg10 mi
7:00 PM54 °FLight rain. Fog.21 mph93%29.80 "Hg2 mi
5:52 PM54 °FLight rain. Fog.22 mph93%29.81 "Hg2 mi
4:52 PM54 °FLight rain. Fog.21 mph90%29.84 "Hg2 mi
3:52 PM53 °FLight rain. Fog.15 mph89%29.88 "Hg3 mi
2:52 PM53 °FLight rain. Overcast.18 mph80%29.93 "Hg7 mi
1:52 PM52 °FLight rain. Mostly cloudy.9 mph80%29.97 "Hg10 mi
12:52 PM51 °FLight rain. Overcast.12 mph74%30.01 "Hg10 mi
11:52 AM52 °FOvercast.13 mph64%30.05 "Hg10 mi
10:52 AM50 °FOvercast.12 mph68%30.08 "Hg10 mi
9:52 AM46 °FMostly cloudy.9 mph77%30.11 "Hg10 mi
8:52 AM45 °FOvercast.7 mph82%30.13 "Hg10 mi
7:52 AM43 °FBroken clouds.3 mph86%30.16 "Hg10 mi
6:52 AM41 °FPassing clouds.No wind93%30.19 "Hg10 mi
5:52 AM41 °FClear.3 mph93%30.18 "Hg10 mi
4:52 AM38 °FPassing clouds.No wind93%30.18 "Hg10 mi
3:52 AM37 °FClear.No wind93%30.19 "Hg10 mi
2:52 AM37 °FClear.No wind93%30.20 "Hg10 mi
1:52 AM36 °FClear.No wind92%30.22 "Hg8 mi
12:52 AM36 °FClear.No wind92%30.24 "Hg9 mi
11:52 PM
Sun, Apr 19
38 °FClear.No wind90%30.24 "Hg10 mi
10:52 PM41 °FClear.3 mph80%30.24 "Hg10 mi
Weather by CustomWeather, © 2015

See weather overviewHow to use our weather pages